Regional Weather Roundup
Issued by NWS Newport/Morehead, NC

Current Version | Previous Version | Text Only | Print | Product List | Glossary Off
Versions: 1 2 3 4 5 6 7 8 9 10 11 12 13 14 15 16 17 18 19 20 21 22 23 24 25 26 27 28 29 30 31 32 33 34 35 36 37 38 39 40 41 42 43 44 45 46 47 48 49 50

936
ASUS42 KMHX 241513
RWRMHX
WEATHER ROUNDUP FOR EASTERN NORTH CAROLINA
NATIONAL WEATHER SERVICE NEWPORT/MOREHEAD CITY NC
1100 AM EDT MON JUL 24 2017

NOTE: "FAIR" INDICATES FEW OR NO CLOUDS BELOW 12,000 FEET
WITH NO SIGNIFICANT WEATHER AND/OR OBSTRUCTIONS TO VISIBILITY

NCZ015>017-031-032-045>047-102-103-241600-
NORTH COAST

CITY           SKY/WX    TMP DP  RH WIND       PRES   REMARKS
EDENTON        MOSUNNY   84  74  73 SW10      29.91R
ELIZABETH CITY MOSUNNY   84  77  79 SW13G21   29.89R
KITTY HAWK     CLOUDY    82  73  75 SW7G16    29.88R
MANTEO         CLOUDY    82  74  77 SW18G24   29.90R

$$

NCZ045>047-081-094-103-104-241600-
CENTRAL COAST

CITY           SKY/WX    TMP DP  RH WIND       PRES   REMARKS
FRISCO         CLOUDY    81  75  82 SW13      29.93R

$$

NCZ095-097-098-100-101-241600-
SOUTHERN COAST

CITY           SKY/WX    TMP DP  RH WIND       PRES   REMARKS
BEAUFORT       MOSUNNY   84  78  82 SW16G25   29.94R
CEDAR ISLAND   NOT AVBL
JACKSONVILLE   CLOUDY    85  76  74 SW10      29.93R
PINEY ISLAND   CLOUDY   N/A N/A N/A SW20G25   29.93R
WILMINGTON     MOSUNNY   87  75  67 SW16      29.95R


$$

NCZ011>013-027>030-043-044-078>080-089-090>093-098-241600-
COASTAL PLAIN

CITY           SKY/WX    TMP DP  RH WIND       PRES   REMARKS
AHOSKIE          N/A     74  73  95 S3        29.90R
CLINTON        NOT AVBL
ELIZABETHTOWN  NOT AVBL
GOLDSBORO      CLOUDY    85  76  75 SW15      29.92R
GREENVILLE     CLOUDY    81  73  78 W6        29.95R
HAVELOCK       MOSUNNY   86  74  67 SW15      29.94R
KENANSVILLE    MOSUNNY   82  73  74 SW10      29.94R
KINSTON        NOT AVBL
NEW BERN       PTSUNNY   84  74  71 SW10      29.94R
RICHLANDS      CLOUDY    83  75  77 SW10      29.95R
ROCKY MOUNT    MOSUNNY   77  75  93 S8        29.92R
WASHINGTON     MOSUNNY   83  73  72 SW14      29.93R
WHITEVILLE     NOT AVBL

$$

AMZ130-135-150-152-154-156-158-170-250-252-270-ANZ085-086-088-633-658-670-241600-
MARINE OBSERVATIONS

STATION/POSITION TIME  TEMP    WIND        PRES    WAVE   SWELL
                       AIR SEA DIR/SP/G            HT/PER HT/PER
                 (UTC) (F)     (DEG/KT/KT) (MB)    (FT/S) (FT/S)
CHESAPEAKE LIGHT NOT AVBL
64 E VA BEACH    1450   79 78  220/ 17/ 19 1011.7    5/ 7   2/ 9
DUCK             1448   82 62  220/ 18/ 23 1011.4
2 E DUCK         1400      62                N/A     2/10
OREGON INLET     1448          210/ 20/ 23   N/A
13E OREGON INLT  1448      74                N/A     4/ 7   3/ 7
HATTERAS CG      1448   80 77  230/ 11/ 18 1013.3
DIAMOND BUOY     1450   82 84  230/ 23/ 27 1012.8    8/ 8   5/ 8
CAPE LOOKOUT     1500   83     230/ 11/ 14 1013.4
BEAUFORT LAB     1448   83 79  230/  6/ 12 1013.3
30 SE NEW RVR IN 1408   81 82  240/ 17/ 21 1014.1
30 SE NEW RVR IN 1443      82                N/A     7/ 7   2/11
27 SE WRIGHTSVLE 1408   81 83  220/ 16/ 23 1013.9
5 SE WRIGHTSVLE  1408   82 81  200/ 10/ 16 1013.7
225 S CAPE HAT   1450   83 83  230/ 16/ 19 1018.3    5/ 7   2/ 8
41 SE CHARLESTON 1450   81 83  250/ 19/ 25 1015.5    5/ 6   2/ 8

$$




USA.gov is the U.S. government's official web portal to all federal, state and local government web resources and services.